KPWTKCLM

Guest
Details From KPWT - Bremerton National
To KCLM - William R Fairchild Intl
Flight Number -
Tags Routegen
Created
Modified
Stats Distance 49 nm / 90 km
Max Altitude 0 ft / 0 m
Waypoints 2
Social Downloads 11
Likes 0
Share

Download

Looking for another format? Having issues loading an existing format? Contact us
Advertisement - Login to hide

Notes

None

Route

KPWT KCLM

ID Type Via Altitude (ft/m) Position (lat/lon) Dist (leg/tot) Name
O KPWT APT - 0 / 0 47.48333 / -122.77138 - / 0 nm
O KCLM APT - 0 / 0 48.12104 / -123.51152 48 / 48 nm

Altitude Profile

Advertisement - Login to hide

KPWT

Details ICAO KPWT (PWT)
Name Bremerton National
Region United States
Timezone America/Los_Angeles (UTC-8.0)
Stats Elevation 444 ft / 135 m (AMSL)
Location 47.490200° -122.765000°
Runways 1
Magnetic Variation 15.040° E

METAR

KPWT 072356Z AUTO 21012KT 10SM CLR 08/05 A3013 RMK AO2 RAB00E14 SLP209 P0000 60014 T00830050 10106 20067 53015

Decode

TAF

TAF KPWT 072320Z 0800/0824 23014G24KT P6SM SCT015 BKN150 FM080200 23012G20KT P6SM SCT025 BKN050 FM080900 19007KT P6SM SCT025 BKN050

Decode

Departure Runways

ID Width Length Bearing (true/mag) Surface Threshold Overrun Markings Lighting
01 151 ft / 46 m 5,997 ft / 1,828 m 32.69° / 17.65° ASPHALT 0 ft / 0 m 0 ft / 0 m APP EDGE THRESHOLD
19 151 ft / 46 m 5,997 ft / 1,828 m 212.70° / 197.66° ASPHALT 0 ft / 0 m 1,243 ft / 379 m PREC-APP EDGE THRESHOLD MALSR

KCLM

Details ICAO KCLM (CLM)
Name WILLIAM R FAIRCHILD INTL
Region United States
Timezone America/Los_Angeles (UTC-8.0)
Stats Elevation 291 ft / 89 m (AMSL)
Location 48.120800° -123.500000°
Runways 2
Magnetic Variation 15.289° E

METAR

KCLM 072353Z AUTO 25006KT 10SM FEW036 BKN043 OVC080 08/04 A3014 RMK AO2 RAB13E52 SLP206 P0000 60012 T00780044 10100 20078 53020

Decode

TAF

TAF KCLM 072320Z 0800/0824 25015G23KT P6SM SCT030 BKN060 FM080500 29008KT P6SM BKN050 FM081900 07004KT P6SM SCT050 BKN150

Decode

Destination Runways

ID Width Length Bearing (true/mag) Surface Threshold Overrun Markings Lighting
08 151 ft / 46 m 6,353 ft / 1,936 m 104.61° / 89.32° ASPHALT 0 ft / 0 m 0 ft / 0 m PREC-APP EDGE THRESHOLD MALSR
13 49 ft / 15 m 3,244 ft / 989 m 147.64° / 132.35° ASPHALT 0 ft / 0 m 0 ft / 0 m APP EDGE THRESHOLD
26 151 ft / 46 m 6,353 ft / 1,936 m 284.63° / 269.34° ASPHALT 1,355 ft / 413 m 0 ft / 0 m APP EDGE THRESHOLD REIL-OMNI
31 49 ft / 15 m 3,244 ft / 989 m 327.64° / 312.35° ASPHALT 0 ft / 0 m 0 ft / 0 m APP EDGE THRESHOLD

Approach Navaids

Runway Type Ident Frequency Range Bearing (true/mag) Slope Elevation
08 MM MM - - 104.62° / 89.33 ° - 291 ft / 89 m (AMSL)
08 LOC-ILS ICLM 108.90 MHz 18 nm / 33 km 104.64° / 89.35 ° - 291 ft / 89 m (AMSL)
08 GS ICLM 108.90 MHz 10 nm / 19 km 105.25° / 89.96 ° 3.00° 281 ft / 86 m (AMSL)
08 OM OM - - 104.62° / 89.33 ° - 1,069 ft / 326 m (AMSL)

Popular Alternatives